User: anonymous   Login
Location: Pine Mountain Observatory
(43.7910°N, 120.9377°W)
Time: 01:52:19
(UTC-07:00)
Language:

APEX - Orbit

View from above orbital plane
View from above orbital plane
View from above satellite
View from above satellite

Ground track
Ground track

The orbit data is extracted from the following two-line orbital elements,

1 23191U 94046A   17174.62270337 +.00003603 +00000-0 +12096-3 0  9992
2 23191 069.9223 204.6960 0605951 237.1599 116.9808 14.38062889117447
Epoch (UTC): 23 June 2017 14:56:41
Eccentricity: 0.0605951
inclination: 69.9223°
perigee height: 332 km
apogee height: 1198 km
right ascension of ascending node: 204.6960°
argument of perigee: 237.1599°
revolutions per day: 14.38062889
mean anomaly at epoch: 116.9808°
orbit number at epoch: 11744

The dashed part of the orbit path shows where the satellite is in the earth's shadow,  

DLR